Orbital Elements at Epoch 2459200.5 (2020-Dec-17.0) TDB
Reference: JPL 25 (heliocentric ecliptic J2000)
Element | Value | Uncertainty (1-sigma) | Units |
e | .07154160709493902 | 3.0562e-08 | |
a | 2.951912350272746 | 1.3815e-08 | au |
q | 2.740727796730835 | 9.326e-08 | au |
i | 2.693395081885367 | 5.679e-06 | deg |
node | 150.1557963550465 | 7.9472e-05 | deg |
peri | 309.9249103103474 | 9.143e-05 | deg |
M | 271.155259264136 | 4.6524e-05 | deg |
tp | 2459657.675383132596 (2022-Mar-19.17538313) | 0.0002405 | TDB |
period | 1852.480367037609 5.07 | 1.3005e-05 3.561e-08 | d yr |
n | .1943340433754197 | 1.3643e-09 | deg/d |
Q | 3.163096903814657 | 1.4804e-08 | au |
|
| | Orbit Determination Parameters
Additional Information
|